Weather History for KDMO - March, 2013

Change the Weather History Date:

Tuesday, March 19, 2013

  Actual Average Record
Temperature  
Mean Temperature 37 °F 47 °F  
Max Temperature 44 °F 58 °F - ()
Min Temperature 30 °F 37 °F - ()
Degree Days  
Heating Degree Days 28 18  
Month to date heating degree days 493 399  
Since 1 July heating degree days 3931 4016  
Cooling Degree Days 0 0  
Month to date cooling degree days 0 0  
Year to date cooling degree days 1 0  
Moisture  
Dew Point 25 °F    
Average Humidity 60    
Maximum Humidity 85    
Minimum Humidity 34    
Precipitation  
Precipitation 0.00 in 0.07 in - ()
Month to date precipitation 1.50 1.55  
Year to date precipitation 6.77 5.15  
Sea Level Pressure  
Sea Level Pressure 30.21 in    
Wind  
Wind Speed 6 mph (West)    
Max Wind Speed 14 mph    
Max Gust Speed 25 mph    
Visibility 10 miles    
Events      
T = Trace of Precipitation, MM = Missing Value Source: NWS Daily Summary

Daily Weather History Graph

Daily Weather History Graph

Search for Another Location

Airport or City:

Trip Planner

Search our weather history database for the weather conditions in past years. The results will help you decide how hot, cold, wet, or windy it might be!

Date:

Astronomy

Mar. 19, 2013 Rise Set
Actual Time 7:17 AM CDT 7:23 PM CDT
Civil Twilight 6:50 AM CDT 7:50 PM CDT
Nautical Twilight 6:19 AM CDT 8:21 PM CDT
Astronomical Twilight 5:48 AM CDT 8:53 PM CDT
Moon 12:11 PM CDT (3/19) 2:07 AM CDT (3/19)
Length of Visible Light 12h 59m
Length of Day
12h 06m
Waxing Crescent, 50% of the Moon is Illuminated
Mar 19
Waxing Crescent
Mar 19
First Quarter
Mar 27
Full
Apr 2
Last Quarter
Apr 10
New

Hourly Weather History & Observations

Time (CDT) Temp. Windchill Dew Point Humidity Pressure Visibility Wind Dir Wind Speed Gust Speed Precip Events Conditions
12:53 AM 33.1 °F 28.7 °F 21.0 °F 61% 30.08 in 10.0 mi NNW 4.6 mph - N/A   Clear
1:53 AM 30.9 °F 26.2 °F 21.0 °F 67% 30.10 in 10.0 mi NW 4.6 mph - N/A   Clear
2:53 AM 32.0 °F 27.5 °F 19.9 °F 61% 30.11 in 10.0 mi WNW 4.6 mph - N/A   Scattered Clouds
3:53 AM 32.0 °F 27.5 °F 21.0 °F 64% 30.11 in 10.0 mi WNW 4.6 mph - N/A   Overcast
4:53 AM 32.0 °F 27.5 °F 19.9 °F 61% 30.12 in 10.0 mi West 4.6 mph - N/A   Overcast
5:53 AM 30.9 °F - 21.0 °F 67% 30.13 in 10.0 mi Calm Calm - N/A   Overcast
6:53 AM 33.1 °F 30.0 °F 21.0 °F 61% 30.15 in 10.0 mi NW 3.5 mph - N/A   Overcast
7:53 AM 33.1 °F 28.7 °F 21.0 °F 61% 30.17 in 10.0 mi NW 4.6 mph - N/A   Overcast
8:53 AM 35.1 °F 30.1 °F 18.0 °F 50% 30.21 in 10.0 mi WNW 5.8 mph - N/A   Overcast
9:53 AM 36.0 °F 30.3 °F 17.1 °F 46% 30.23 in 10.0 mi NW 6.9 mph - N/A   Overcast
10:53 AM 37.9 °F 31.5 °F 16.0 °F 41% 30.25 in 10.0 mi NNW 9.2 mph - N/A   Overcast
11:53 AM 39.0 °F 34.0 °F 16.0 °F 39% 30.26 in 10.0 mi NNW 6.9 mph - N/A   Overcast
12:53 PM 41.0 °F - 15.1 °F 35% 30.26 in 10.0 mi Calm Calm - N/A   Overcast
1:53 PM 42.1 °F - 17.1 °F 37% 30.25 in 10.0 mi Calm Calm - N/A   Overcast
2:53 PM 43.0 °F 39.5 °F 19.0 °F 38% 30.24 in 10.0 mi West 5.8 mph - N/A   Overcast
3:53 PM 43.0 °F 38.8 °F 18.0 °F 37% 30.24 in 10.0 mi Variable 6.9 mph - N/A   Overcast
4:53 PM 41.0 °F 35.2 °F 30.0 °F 65% 30.25 in 10.0 mi WSW 9.2 mph - N/A   Overcast
5:53 PM 41.0 °F 36.4 °F 32.0 °F 70% 30.25 in 10.0 mi SW 6.9 mph - N/A   Overcast
6:53 PM 39.9 °F 34.5 °F 33.1 °F 77% 30.24 in 10.0 mi WSW 8.1 mph - N/A   Mostly Cloudy
7:02 PM 39.2 °F 34.2 °F 33.8 °F 81% 30.22 in 10.0 mi WSW 6.9 mph - N/A   Mostly Cloudy
7:30 PM 39.2 °F 33.6 °F 33.8 °F 81% 30.22 in 10.0 mi West 8.1 mph - N/A   Mostly Cloudy
7:53 PM 39.0 °F 34.0 °F 33.1 °F 79% 30.24 in 10.0 mi West 6.9 mph - N/A   Partly Cloudy
8:53 PM 37.0 °F 34.5 °F 33.1 °F 86% 30.25 in 10.0 mi WSW 3.5 mph - N/A   Clear
9:53 PM 37.0 °F 32.4 °F 34.0 °F 89% 30.26 in 10.0 mi WSW 5.8 mph - N/A   Scattered Clouds
10:02 PM 37.4 °F 32.8 °F 33.8 °F 87% 30.24 in 10.0 mi West 5.8 mph - N/A   Mostly Cloudy
10:53 PM 37.0 °F 29.8 °F 34.0 °F 89% 30.26 in 10.0 mi West 10.4 mph - N/A   Mostly Cloudy
11:08 PM 37.4 °F 32.1 °F 33.8 °F 87% 30.24 in 10.0 mi West 6.9 mph - N/A   Mostly Cloudy
11:53 PM 37.0 °F 31.0 °F 33.1 °F 86% 30.25 in 8.0 mi WSW 8.1 mph - N/A   Clear